Location: Unspecified
(0.0000°N, 0.0000°E)
Time: 08:19:11
(UTC+00:00)

Envisat - Pass Details

Date: 16 February 2018
Orbit: 764 x 766 km, 98.2° (Epoch: 23 February)

Event Time Altitude Azimuth Distance (km) Brightness Sun altitude
Rises 20:04:52 0° 173° (S) 3,231 6.3 -27.0°
Reaches altitude 10° 20:07:11 10° 175° (S) 2,303 5.5 -27.6°
Maximum altitude 20:12:14 69° 258° (WSW) 816 3.2 -28.8°
Enters shadow 20:13:19 53° 317° (NW) 939 3.5 -29.1°
Exits shadow 20:17:30 - 341° (NNW) 2,392 5.6 -30.1°
Sets 20:19:33 0° 344° (NNW) 3,215 6.3 -30.6°
